<?xml version="1.0" encoding="UTF-8" standalone="no" ?>
<gpx xmlns="http://www.topografix.com/GPX/1/1" xmlns:xsi="http://www.w3.org/2001/XMLSchema-instance" xsi:schemaLocation="http://www.topografix.com/GPX/1/1 http://www.topografix.com/GPX/1/1/gpx.xsd" version="1.1" creator="VisuGPX - https://www.visugpx.com">
  <metadata>
    <name>randonnée  patrimoine à Guehenno  </name>
  </metadata>
  <wpt lat="47.89227" lon="-2.64074">
    <ele>113.7</ele>
    <name><![CDATA[Pst 8 statut social douarinoint sur la carte]]></name>
  </wpt>
  <wpt lat="47.89241" lon="-2.63959">
    <ele>113.8</ele>
    <name><![CDATA[Pstat 7 cal et  m ita oint sur la carte]]></name>
  </wpt>
  <wpt lat="47.8931" lon="-2.63907">
    <ele>112.6</ele>
    <name><![CDATA[Psyat 6 lucarne près mairie oint sur la carte]]></name>
  </wpt>
  <wpt lat="47.89242" lon="-2.63958">
    <ele>113.8</ele>
    <name><![CDATA[point 7 calvaire maison ita sur la carte]]></name>
  </wpt>
  <wpt lat="47.89247" lon="-2.63883">
    <ele>113.3</ele>
    <name><![CDATA[Ppoint 5 réemploi chimereoint sur la carte]]></name>
  </wpt>
  <wpt lat="47.89191" lon="-2.63952">
    <ele>113.7</ele>
    <name><![CDATA[stat 3 teligieuxPoint sur la carte]]></name>
  </wpt>
  <wpt lat="47.89153" lon="-2.64053">
    <ele>113</ele>
    <name><![CDATA[stage 2 les ouverturesPoint sur la carte]]></name>
  </wpt>
  <wpt lat="47.89208" lon="-2.64066">
    <ele>113.5</ele>
    <name><![CDATA[st 1 le granit se racontePoint sur la carte]]></name>
  </wpt>
  <wpt lat="47.8915" lon="-2.6411">
    <ele>112.8</ele>
    <name><![CDATA[Parkingguehennooint sur la carte]]></name>
  </wpt>
  <wpt lat="47.89149" lon="-2.64108">
    <ele>112.8</ele>
    <name><![CDATA[parking d778 en face du 34Point sur la carte]]></name>
  </wpt>
  <wpt lat="47.88706" lon="-2.63488">
    <ele>142.2</ele>
    <name><![CDATA[près chapelle st michelPoint sur la carte]]></name>
  </wpt>
  <wpt lat="47.89149" lon="-2.63819">
    <ele>109.7</ele>
    <name><![CDATA[Pchemin conseille piéton pancarteoint sur la carte]]></name>
  </wpt>
  <trk>
    <name><![CDATA[6 mai 2019 14:26:29]]></name>
    <trkseg>
      <trkpt lat="47.8915" lon="-2.6411">
        <ele>152.02</ele>
        <time>2019-05-06T12:26:32.000Z</time>
      </trkpt>
      <trkpt lat="47.89154" lon="-2.64123">
        <ele>155.22</ele>
        <time>2019-05-06T12:27:22.000Z</time>
      </trkpt>
      <trkpt lat="47.89159" lon="-2.64135">
        <ele>154.13</ele>
        <time>2019-05-06T12:27:32.000Z</time>
      </trkpt>
      <trkpt lat="47.89168" lon="-2.64135">
        <ele>157.2</ele>
        <time>2019-05-06T12:28:46.000Z</time>
      </trkpt>
      <trkpt lat="47.8917" lon="-2.64148">
        <ele>155.45</ele>
        <time>2019-05-06T12:28:54.000Z</time>
      </trkpt>
      <trkpt lat="47.89177" lon="-2.64141">
        <ele>155.66</ele>
        <time>2019-05-06T12:30:23.000Z</time>
      </trkpt>
      <trkpt lat="47.89186" lon="-2.64133">
        <ele>153.2</ele>
        <time>2019-05-06T12:30:33.000Z</time>
      </trkpt>
      <trkpt lat="47.89195" lon="-2.64127">
        <ele>151.92</ele>
        <time>2019-05-06T12:30:42.000Z</time>
      </trkpt>
      <trkpt lat="47.892" lon="-2.64115">
        <ele>150</ele>
        <time>2019-05-06T12:30:54.000Z</time>
      </trkpt>
      <trkpt lat="47.89206" lon="-2.64105">
        <ele>152.72</ele>
        <time>2019-05-06T12:31:03.000Z</time>
      </trkpt>
      <trkpt lat="47.8921" lon="-2.64091">
        <ele>154.08</ele>
        <time>2019-05-06T12:31:14.000Z</time>
      </trkpt>
      <trkpt lat="47.89215" lon="-2.6408">
        <ele>156.13</ele>
        <time>2019-05-06T12:31:23.000Z</time>
      </trkpt>
      <trkpt lat="47.8921" lon="-2.64069">
        <ele>152.06</ele>
        <time>2019-05-06T12:31:40.000Z</time>
      </trkpt>
      <trkpt lat="47.89204" lon="-2.64058">
        <ele>159.67</ele>
        <time>2019-05-06T12:33:44.000Z</time>
      </trkpt>
      <trkpt lat="47.89195" lon="-2.64053">
        <ele>160.03</ele>
        <time>2019-05-06T12:33:55.000Z</time>
      </trkpt>
      <trkpt lat="47.89186" lon="-2.6405">
        <ele>158.06</ele>
        <time>2019-05-06T12:34:09.000Z</time>
      </trkpt>
      <trkpt lat="47.89177" lon="-2.64048">
        <ele>158.78</ele>
        <time>2019-05-06T12:34:19.000Z</time>
      </trkpt>
      <trkpt lat="47.89167" lon="-2.64046">
        <ele>157.1</ele>
        <time>2019-05-06T12:34:30.000Z</time>
      </trkpt>
      <trkpt lat="47.89157" lon="-2.64046">
        <ele>156.22</ele>
        <time>2019-05-06T12:34:38.000Z</time>
      </trkpt>
      <trkpt lat="47.89149" lon="-2.64051">
        <ele>159.49</ele>
        <time>2019-05-06T12:40:24.000Z</time>
      </trkpt>
      <trkpt lat="47.8914" lon="-2.64046">
        <ele>160.96</ele>
        <time>2019-05-06T12:40:32.000Z</time>
      </trkpt>
      <trkpt lat="47.8913" lon="-2.64042">
        <ele>162.08</ele>
        <time>2019-05-06T12:40:41.000Z</time>
      </trkpt>
      <trkpt lat="47.89122" lon="-2.64036">
        <ele>162.39</ele>
        <time>2019-05-06T12:40:49.000Z</time>
      </trkpt>
      <trkpt lat="47.89118" lon="-2.64024">
        <ele>158.36</ele>
        <time>2019-05-06T12:41:03.000Z</time>
      </trkpt>
      <trkpt lat="47.89122" lon="-2.64011">
        <ele>154.01</ele>
        <time>2019-05-06T12:41:15.000Z</time>
      </trkpt>
      <trkpt lat="47.89126" lon="-2.63998">
        <ele>154.89</ele>
        <time>2019-05-06T12:41:24.000Z</time>
      </trkpt>
      <trkpt lat="47.8913" lon="-2.63985">
        <ele>156.84</ele>
        <time>2019-05-06T12:41:33.000Z</time>
      </trkpt>
      <trkpt lat="47.89138" lon="-2.63977">
        <ele>159.29</ele>
        <time>2019-05-06T12:41:42.000Z</time>
      </trkpt>
      <trkpt lat="47.89146" lon="-2.63975">
        <ele>157.6</ele>
        <time>2019-05-06T12:41:52.000Z</time>
      </trkpt>
      <trkpt lat="47.89156" lon="-2.6397">
        <ele>159.46</ele>
        <time>2019-05-06T12:42:03.000Z</time>
      </trkpt>
      <trkpt lat="47.89165" lon="-2.63966">
        <ele>156.75</ele>
        <time>2019-05-06T12:42:12.000Z</time>
      </trkpt>
      <trkpt lat="47.89174" lon="-2.63965">
        <ele>156.05</ele>
        <time>2019-05-06T12:42:21.000Z</time>
      </trkpt>
      <trkpt lat="47.89184" lon="-2.63962">
        <ele>156.64</ele>
        <time>2019-05-06T12:42:31.000Z</time>
      </trkpt>
      <trkpt lat="47.89191" lon="-2.63954">
        <ele>159.28</ele>
        <time>2019-05-06T12:42:44.000Z</time>
      </trkpt>
      <trkpt lat="47.89192" lon="-2.63941">
        <ele>160.05</ele>
        <time>2019-05-06T12:43:56.000Z</time>
      </trkpt>
      <trkpt lat="47.89193" lon="-2.63926">
        <ele>156.94</ele>
        <time>2019-05-06T12:44:08.000Z</time>
      </trkpt>
      <trkpt lat="47.89193" lon="-2.6391">
        <ele>158.59</ele>
        <time>2019-05-06T12:44:22.000Z</time>
      </trkpt>
      <trkpt lat="47.89191" lon="-2.63896">
        <ele>158.28</ele>
        <time>2019-05-06T12:44:30.000Z</time>
      </trkpt>
      <trkpt lat="47.8919" lon="-2.63881">
        <ele>159.95</ele>
        <time>2019-05-06T12:44:37.000Z</time>
      </trkpt>
      <trkpt lat="47.89183" lon="-2.63869">
        <ele>154.88</ele>
        <time>2019-05-06T12:44:47.000Z</time>
      </trkpt>
      <trkpt lat="47.89177" lon="-2.63857">
        <ele>156.3</ele>
        <time>2019-05-06T12:44:55.000Z</time>
      </trkpt>
      <trkpt lat="47.89173" lon="-2.63844">
        <ele>157.22</ele>
        <time>2019-05-06T12:45:01.000Z</time>
      </trkpt>
      <trkpt lat="47.89168" lon="-2.63832">
        <ele>155.73</ele>
        <time>2019-05-06T12:45:10.000Z</time>
      </trkpt>
      <trkpt lat="47.89171" lon="-2.63818">
        <ele>155</ele>
        <time>2019-05-06T12:45:28.000Z</time>
      </trkpt>
      <trkpt lat="47.89178" lon="-2.63808">
        <ele>155.59</ele>
        <time>2019-05-06T12:45:35.000Z</time>
      </trkpt>
      <trkpt lat="47.89187" lon="-2.63804">
        <ele>153.92</ele>
        <time>2019-05-06T12:45:44.000Z</time>
      </trkpt>
      <trkpt lat="47.89196" lon="-2.63802">
        <ele>151.22</ele>
        <time>2019-05-06T12:45:53.000Z</time>
      </trkpt>
      <trkpt lat="47.89205" lon="-2.638">
        <ele>151.09</ele>
        <time>2019-05-06T12:46:00.000Z</time>
      </trkpt>
      <trkpt lat="47.89214" lon="-2.63797">
        <ele>152.27</ele>
        <time>2019-05-06T12:46:11.000Z</time>
      </trkpt>
      <trkpt lat="47.89222" lon="-2.6379">
        <ele>157.48</ele>
        <time>2019-05-06T12:46:21.000Z</time>
      </trkpt>
      <trkpt lat="47.89232" lon="-2.63787">
        <ele>158.33</ele>
        <time>2019-05-06T12:46:26.000Z</time>
      </trkpt>
      <trkpt lat="47.8924" lon="-2.6378">
        <ele>156.39</ele>
        <time>2019-05-06T12:46:32.000Z</time>
      </trkpt>
      <trkpt lat="47.8924" lon="-2.63795">
        <ele>155.01</ele>
        <time>2019-05-06T12:47:10.000Z</time>
      </trkpt>
      <trkpt lat="47.89231" lon="-2.638">
        <ele>151.66</ele>
        <time>2019-05-06T12:49:24.000Z</time>
      </trkpt>
      <trkpt lat="47.89235" lon="-2.63788">
        <ele>153.12</ele>
        <time>2019-05-06T12:49:43.000Z</time>
      </trkpt>
      <trkpt lat="47.89242" lon="-2.63778">
        <ele>153.26</ele>
        <time>2019-05-06T12:49:52.000Z</time>
      </trkpt>
      <trkpt lat="47.89243" lon="-2.63764">
        <ele>154.78</ele>
        <time>2019-05-06T12:50:01.000Z</time>
      </trkpt>
      <trkpt lat="47.89245" lon="-2.63777">
        <ele>155.72</ele>
        <time>2019-05-06T12:51:22.000Z</time>
      </trkpt>
      <trkpt lat="47.89241" lon="-2.63789">
        <ele>154.13</ele>
        <time>2019-05-06T12:51:45.000Z</time>
      </trkpt>
      <trkpt lat="47.89239" lon="-2.63803">
        <ele>156.14</ele>
        <time>2019-05-06T12:51:55.000Z</time>
      </trkpt>
      <trkpt lat="47.89246" lon="-2.63811">
        <ele>158.46</ele>
        <time>2019-05-06T12:52:15.000Z</time>
      </trkpt>
      <trkpt lat="47.89246" lon="-2.63825">
        <ele>159.58</ele>
        <time>2019-05-06T12:53:10.000Z</time>
      </trkpt>
      <trkpt lat="47.89248" lon="-2.63839">
        <ele>157.54</ele>
        <time>2019-05-06T12:53:19.000Z</time>
      </trkpt>
      <trkpt lat="47.89249" lon="-2.63853">
        <ele>158.62</ele>
        <time>2019-05-06T12:53:28.000Z</time>
      </trkpt>
      <trkpt lat="47.89252" lon="-2.63866">
        <ele>158.22</ele>
        <time>2019-05-06T12:53:41.000Z</time>
      </trkpt>
      <trkpt lat="47.89248" lon="-2.63879">
        <ele>161.02</ele>
        <time>2019-05-06T12:53:53.000Z</time>
      </trkpt>
      <trkpt lat="47.89246" lon="-2.63892">
        <ele>161.91</ele>
        <time>2019-05-06T12:57:04.000Z</time>
      </trkpt>
      <trkpt lat="47.89245" lon="-2.63906">
        <ele>158.85</ele>
        <time>2019-05-06T12:57:23.000Z</time>
      </trkpt>
      <trkpt lat="47.89245" lon="-2.63921">
        <ele>161.77</ele>
        <time>2019-05-06T12:57:33.000Z</time>
      </trkpt>
      <trkpt lat="47.89245" lon="-2.63935">
        <ele>161.18</ele>
        <time>2019-05-06T12:57:52.000Z</time>
      </trkpt>
      <trkpt lat="47.89241" lon="-2.63946">
        <ele>164.69</ele>
        <time>2019-05-06T12:58:33.000Z</time>
      </trkpt>
      <trkpt lat="47.89243" lon="-2.63933">
        <ele>162.48</ele>
        <time>2019-05-06T13:01:08.000Z</time>
      </trkpt>
      <trkpt lat="47.89243" lon="-2.63919">
        <ele>163.3</ele>
        <time>2019-05-06T13:01:17.000Z</time>
      </trkpt>
      <trkpt lat="47.89246" lon="-2.63904">
        <ele>163.95</ele>
        <time>2019-05-06T13:01:25.000Z</time>
      </trkpt>
      <trkpt lat="47.89248" lon="-2.6389">
        <ele>162.49</ele>
        <time>2019-05-06T13:01:33.000Z</time>
      </trkpt>
      <trkpt lat="47.89251" lon="-2.63878">
        <ele>161.01</ele>
        <time>2019-05-06T13:01:41.000Z</time>
      </trkpt>
      <trkpt lat="47.89259" lon="-2.63871">
        <ele>160.02</ele>
        <time>2019-05-06T13:01:53.000Z</time>
      </trkpt>
      <trkpt lat="47.89267" lon="-2.63877">
        <ele>159.36</ele>
        <time>2019-05-06T13:02:05.000Z</time>
      </trkpt>
      <trkpt lat="47.89276" lon="-2.63884">
        <ele>159.29</ele>
        <time>2019-05-06T13:02:15.000Z</time>
      </trkpt>
      <trkpt lat="47.89282" lon="-2.63894">
        <ele>158.17</ele>
        <time>2019-05-06T13:02:24.000Z</time>
      </trkpt>
      <trkpt lat="47.89291" lon="-2.639">
        <ele>159.17</ele>
        <time>2019-05-06T13:02:32.000Z</time>
      </trkpt>
      <trkpt lat="47.89299" lon="-2.63908">
        <ele>159.03</ele>
        <time>2019-05-06T13:02:40.000Z</time>
      </trkpt>
      <trkpt lat="47.89308" lon="-2.63906">
        <ele>160.1</ele>
        <time>2019-05-06T13:02:50.000Z</time>
      </trkpt>
      <trkpt lat="47.89303" lon="-2.63918">
        <ele>162.79</ele>
        <time>2019-05-06T13:05:35.000Z</time>
      </trkpt>
      <trkpt lat="47.893" lon="-2.63932">
        <ele>161.95</ele>
        <time>2019-05-06T13:06:00.000Z</time>
      </trkpt>
      <trkpt lat="47.89295" lon="-2.63944">
        <ele>164.97</ele>
        <time>2019-05-06T13:06:09.000Z</time>
      </trkpt>
      <trkpt lat="47.8929" lon="-2.63958">
        <ele>166.68</ele>
        <time>2019-05-06T13:06:55.000Z</time>
      </trkpt>
      <trkpt lat="47.8928" lon="-2.63961">
        <ele>169.29</ele>
        <time>2019-05-06T13:07:27.000Z</time>
      </trkpt>
      <trkpt lat="47.89271" lon="-2.63957">
        <ele>171.43</ele>
        <time>2019-05-06T13:07:34.000Z</time>
      </trkpt>
      <trkpt lat="47.89261" lon="-2.63958">
        <ele>165.51</ele>
        <time>2019-05-06T13:07:42.000Z</time>
      </trkpt>
      <trkpt lat="47.89251" lon="-2.63957">
        <ele>169.09</ele>
        <time>2019-05-06T13:07:51.000Z</time>
      </trkpt>
      <trkpt lat="47.89243" lon="-2.63956">
        <ele>171.79</ele>
        <time>2019-05-06T13:08:01.000Z</time>
      </trkpt>
      <trkpt lat="47.89236" lon="-2.63966">
        <ele>161.7</ele>
        <time>2019-05-06T13:09:20.000Z</time>
      </trkpt>
      <trkpt lat="47.89236" lon="-2.6398">
        <ele>162.74</ele>
        <time>2019-05-06T13:09:27.000Z</time>
      </trkpt>
      <trkpt lat="47.89236" lon="-2.63994">
        <ele>161.12</ele>
        <time>2019-05-06T13:09:35.000Z</time>
      </trkpt>
      <trkpt lat="47.89236" lon="-2.64008">
        <ele>164.03</ele>
        <time>2019-05-06T13:09:43.000Z</time>
      </trkpt>
      <trkpt lat="47.89234" lon="-2.64022">
        <ele>167.2</ele>
        <time>2019-05-06T13:09:49.000Z</time>
      </trkpt>
      <trkpt lat="47.89236" lon="-2.64036">
        <ele>168.49</ele>
        <time>2019-05-06T13:09:57.000Z</time>
      </trkpt>
      <trkpt lat="47.89235" lon="-2.64051">
        <ele>163.75</ele>
        <time>2019-05-06T13:10:06.000Z</time>
      </trkpt>
      <trkpt lat="47.89231" lon="-2.64063">
        <ele>163.63</ele>
        <time>2019-05-06T13:10:13.000Z</time>
      </trkpt>
      <trkpt lat="47.89228" lon="-2.64076">
        <ele>162.18</ele>
        <time>2019-05-06T13:10:22.000Z</time>
      </trkpt>
    </trkseg>
  </trk>
</gpx>